Location: Hysolar-Haus
(48.7436°N, 9.0965°E)
Time: 09:40:17
(UTC+00:00)

ISS - Pass Details

Date: 31 January 2023
Orbit: 413 x 423 km, 51.6° (Epoch: 02 April)

Event Time Altitude Azimuth Distance (km) Brightness Sun altitude
Rises 18:20:02 0° 290° (WNW) 2,429 1.3 -19.9°
Reaches altitude 10° 18:22:15 10° 282° (WNW) 1,557 0.2 -20.3°
Maximum altitude 18:25:30 37° 214° (SSW) 707 -2.4 -20.8°
Enters shadow 18:26:21 31° 180° (S) 793 -2.4 -21.0°
